Regional Weather Roundup
Issued by NWS

Home | Current Version | Previous Version | Graphics & Text | Print | Product List | Glossary On
Versions: 1 2 3 4 5 6 7 8 9 10 11 12 13 14 15 16 17 18 19 20 21 22 23 24 25 26 27
000
ASUS45 KSLC 232010
RWRUT

UTAH REGIONAL WEATHER ROUNDUP
NATIONAL WEATHER SERVICE SALT LAKE CITY UT
200 PM MDT SAT JUL 23 2016

UTZ001>011-023>025-232100-

NORTHERN UTAH

CITY           SKY/WX    TMP DP  RH WIND       PRES   REMARKS
BRIGHAM CITY     N/A     88  17   7 W3        30.12F
HILL AFB       SUNNY     86  26  11 NW8       30.15F
LOGAN          SUNNY     87  31  13 S7        30.13F
OGDEN          SUNNY     88  26  10 VRB6      30.13F
PROVO AIRPORT  SUNNY     84  46  26 W8        30.12F
SALT LAKE CITY MOSUNNY   92  30  11 N10       30.10F
VERNAL         SUNNY     91  46  21 SE6       30.11F
WENDOVER       SUNNY     84  30  14 SE8       30.13F
HEBER CITY     SUNNY     90  27  10 S3        30.16F

$$

UTZ012>022-026-027-232100-

SOUTHERN/CENTRAL UTAH

CITY           SKY/WX    TMP DP  RH WIND       PRES   REMARKS
BLANDING       SUNNY     91  45  20 W3        30.25F
BRYCE CANYON   MOSUNNY   87  30  13 SW12      30.33F
CEDAR CITY     SUNNY     94  34  12 W10       30.15F
DELTA          SUNNY     91  27   9 NW7       30.11F
MILFORD        SUNNY     94  28   9 VRB7      30.11F
MOAB/CYNLANDS  SUNNY     97  45  16 VRB5      30.04F HX  93
PRICE          SUNNY     89  45  21 S10       30.17F
ST GEORGE      CLEAR    104  43  12 NW5       29.94F HX  99

$$

REGIONAL REPORTS     COLORADO/ARIZONA

CITY           SKY/WX    TMP DP  RH WIND       PRES   REMARKS
CRAIG, CO      SUNNY     90  41  18 W8G17     30.19F
GRAND JUNCTION SUNNY     91  48  22 VRB3      30.09F
RIFLE          SUNNY     92  42  17 NW8       30.14F
MONTROSE       SUNNY     90  44  20 N8        30.18F
CORTEZ         SUNNY     93  44  18 NW10      30.18F
PAGE, AZ       SUNNY    100  38  11 N8        30.04F HX  95
GRAND CANYON   PTSUNNY   90  37  15 SW12      30.28F
KINGMAN        SUNNY    102  42  13 SW17G25   30.02F HX  97
FLAGSTAFF      PTSUNNY   85  42  22 VRB6      30.31F

$$

REGIONAL REPORTS    NEVADA/IDAHO/WYOMING

CITY           SKY/WX    TMP DP  RH WIND       PRES   REMARKS
LAS VEGAS, NV  MOSUNNY  109  23   5 VRB3      29.82F HX 100
ELY            SUNNY     88  20   8 E6        30.20F
ELKO           SUNNY     86  14   7 VRB3      30.17F
POCATELLO, ID  SUNNY     81  33  17 W16       30.17F
BURLEY         SUNNY     77  41  27 W12G18    30.15F
EVANSTON, WY   SUNNY     82  12   7 W16G26    30.29F
ROCK SPRINGS   SUNNY     84  18   8 SW16G25   30.24F
KEMMERER         N/A     79  19  11 W18G25    30.30S

$$




USA.gov is the U.S. government's official web portal to all federal, state and local government web resources and services.